Weather History for KUZA - March, 2013

Change the Weather History Date:

Tuesday, March 12, 2013

  Actual Average Record
Temperature  
Mean Temperature 60 °F -  
Max Temperature 70 °F 66 °F 85 °F (1990)
Min Temperature 48 °F 42 °F 22 °F (1969)
Degree Days  
Heating Degree Days 4    
Growing Degree Days 10 (Base 50)    
Moisture  
Dew Point 51 °F    
Average Humidity 77    
Maximum Humidity 100    
Minimum Humidity 25    
Precipitation  
Precipitation 0.76 in - - ()
Sea Level Pressure  
Sea Level Pressure 29.83 in    
Wind  
Wind Speed 9 mph (WSW)    
Max Wind Speed 14 mph    
Max Gust Speed 22 mph    
Visibility 7 miles    
Events Rain    
Averages and records for this station are not official NWS values.
T = Trace of Precipitation, MM = Missing Value Source: NWS Daily Summary

Daily Weather History Graph

Daily Weather History Graph

Search for Another Location

Airport or City:

Trip Planner

Search our weather history database for the weather conditions in past years. The results will help you decide how hot, cold, wet, or windy it might be!

Date:

Astronomy

Mar. 12, 2013 Rise Set
Actual Time 7:38 AM EDT 7:29 PM EDT
Civil Twilight 7:13 AM EDT 7:54 PM EDT
Nautical Twilight 6:44 AM EDT 8:24 PM EDT
Astronomical Twilight 6:14 AM EDT 8:53 PM EDT
Moon 7:48 AM EDT (3/12) 8:38 PM EDT (3/12)
Length of Visible Light 12h 41m
Length of Day
11h 50m
New Moon, 1% of the Moon is Illuminated
Mar 12
New Moon
Mar 19
First Quarter
Mar 27
Full
Apr 3
Last Quarter
Apr 10
New

Hourly Weather History & Observations

Time (EDT) Temp. Dew Point Humidity Pressure Visibility Wind Dir Wind Speed Gust Speed Precip Events Conditions
12:54 AM 57.9 °F 55.9 °F 93% 29.83 in 7.0 mi South 5.8 mph 17.3 mph 0.06 in Rain Light Rain
1:54 AM 57.9 °F 57.0 °F 97% 29.81 in 6.0 mi South 6.9 mph - 0.05 in Rain Light Rain
2:04 AM 57.9 °F 57.0 °F 97% 29.83 in 6.0 mi South 8.1 mph 17.3 mph 0.01 in Rain Light Rain
2:33 AM 57.9 °F 57.0 °F 97% 29.82 in 4.0 mi South 10.4 mph - 0.09 in Rain Rain
2:41 AM 57.9 °F 57.9 °F 100% 29.81 in 4.0 mi South 5.8 mph - 0.11 in Rain Rain
2:54 AM 57.9 °F 57.9 °F 100% 29.79 in 5.0 mi South 6.9 mph - 0.13 in Rain Light Rain
3:17 AM 57.9 °F 57.0 °F 97% 29.82 in 2.0 mi WSW 6.9 mph - 0.12 in Rain Heavy Rain
3:27 AM 57.9 °F 57.0 °F 97% 29.81 in 1.8 mi SSW 5.8 mph - 0.19 in Rain Heavy Rain
3:34 AM 57.9 °F 57.9 °F 100% 29.80 in 3.0 mi South 6.9 mph - 0.21 in Rain Rain
3:54 AM 57.9 °F 57.0 °F 97% 29.77 in 4.0 mi South 6.9 mph - 0.27 in Rain Rain
4:51 AM 59.0 °F 57.2 °F 94% 29.77 in 2.5 mi SSW 12.7 mph 21.9 mph 0.14 in Rain Rain
4:54 AM 59.0 °F 57.9 °F 96% 29.75 in 2.5 mi SSW 11.5 mph 21.9 mph 0.15 in Rain Rain
5:01 AM 59.0 °F 57.9 °F 96% 29.77 in 3.0 mi SSW 13.8 mph 21.9 mph 0.01 in Rain Rain
5:54 AM 59.0 °F 57.9 °F 96% 29.75 in 3.0 mi SSW 13.8 mph 20.7 mph 0.08 in Rain Light Rain
6:54 AM 59.0 °F 57.9 °F 96% 29.77 in 8.0 mi SSW 11.5 mph - 0.02 in Rain Light Rain
7:54 AM 59.0 °F 57.9 °F 96% 29.78 in 5.0 mi SW 11.5 mph - 0.00 in   Overcast
8:54 AM 59.0 °F 57.9 °F 96% 29.79 in 5.0 mi SSW 11.5 mph - N/A   Overcast
9:54 AM 60.1 °F 57.9 °F 93% 29.81 in 10.0 mi SW 11.5 mph - N/A   Overcast
10:17 AM 61.0 °F 59.0 °F 93% 29.83 in 10.0 mi West 6.9 mph - N/A   Overcast
10:41 AM 61.0 °F 57.0 °F 87% 29.84 in 10.0 mi West 6.9 mph - N/A   Overcast
10:54 AM 61.0 °F 57.9 °F 90% 29.83 in 10.0 mi SW 10.4 mph - N/A   Mostly Cloudy
11:04 AM 63.0 °F 57.9 °F 84% 29.84 in 10.0 mi WSW 9.2 mph - N/A   Mostly Cloudy
11:29 AM 63.0 °F 55.9 °F 78% 29.84 in 10.0 mi West 9.2 mph - N/A   Mostly Cloudy
11:37 AM 63.0 °F 55.0 °F 75% 29.84 in 10.0 mi WSW 10.4 mph - N/A   Scattered Clouds
11:54 AM 63.0 °F 55.0 °F 75% 29.83 in 10.0 mi WNW 12.7 mph - N/A   Scattered Clouds
12:54 PM 64.9 °F 51.1 °F 61% 29.83 in 10.0 mi WSW 5.8 mph - N/A   Partly Cloudy
1:54 PM 66.9 °F 50.0 °F 54% 29.81 in 10.0 mi Variable 5.8 mph - N/A   Clear
2:54 PM 66.9 °F 48.9 °F 52% 29.81 in 10.0 mi WNW 11.5 mph - N/A   Scattered Clouds
3:54 PM 69.1 °F 46.0 °F 44% 29.81 in 10.0 mi West 5.8 mph - N/A   Clear
4:54 PM 70.0 °F 44.1 °F 39% 29.81 in 10.0 mi NNW 10.4 mph - N/A   Clear
5:54 PM 68.0 °F 33.1 °F 27% 29.83 in 10.0 mi NW 9.2 mph - N/A   Clear
6:54 PM 64.9 °F 28.0 °F 25% 29.84 in 10.0 mi NW 8.1 mph - N/A   Clear
7:54 PM 59.0 °F 35.1 °F 41% 29.89 in 10.0 mi North 8.1 mph - N/A   Clear
8:54 PM 55.9 °F 27.0 °F 33% 29.92 in 10.0 mi NNW 9.2 mph - N/A   Clear
9:54 PM 54.0 °F 32.0 °F 43% 29.95 in 10.0 mi North 11.5 mph - N/A   Partly Cloudy
10:54 PM 51.1 °F 30.9 °F 46% 29.97 in 10.0 mi North 12.7 mph - N/A   Clear
11:54 PM 48.9 °F 30.0 °F 48% 29.99 in 10.0 mi North 9.2 mph - N/A   Clear